Date String (YYYY-MM-DD hh:mm:ss) UTC,Instrument flags,absolute air pressure of the measurement (hPa),sample flow rate (lpm),inlet stack bypass flow (lpm),air temperature of the measurement (°C),ambient temperature measured by the external sensor (°C),aerosol sample conditioner tube jacket temperature (°C),OPC LED temperature (°C),internal box temperature (°C),relative humidity of the measurement (%),span deviation,mass concentration of particles derived from Lorenz-Mie calculation of OPC scattering (μg/m³),mass concentration of particles derived from Lorenz-Mie calculation of OPC scattering (μg/m³),mass concentration of particles derived from Lorenz-Mie calculation of OPC scattering (μg/m³)
DateTimeUTC,F1_M11,P_M11,Q1_M11,Q2_M11,T1_M11,T2_M11,T3_M11,T4_M11,T5_M11,U1_M11,ZSPAN_M11,X0_M11,X2_M11,X1_M11
2023-08-10 23:00:00,SystemResetWarning,0828.6,5.00,000.00,028.8,026.1,000.0,037.2,030.3,17.9,0000.0,0007.52,0004.07,0003.68
2023-08-10 23:01:00,SystemResetWarning,0828.6,5.00,000.00,028.8,026.5,000.0,037.2,030.4,18.0,0000.0,0007.62,0004.12,0003.71
2023-08-10 23:02:00,SystemResetWarning,0828.6,5.01,000.00,028.8,026.8,000.0,037.3,030.5,18.2,0000.0,0007.70,0004.15,0003.73
2023-08-10 23:03:00,SystemResetWarning,0828.6,5.00,000.00,028.9,027.1,000.0,037.3,030.6,18.2,0000.0,0007.54,0004.13,0003.75
2023-08-10 23:04:00,SystemResetWarning,0828.6,4.99,000.00,028.9,027.4,000.0,037.3,030.7,18.1,0000.0,0007.50,0004.12,0003.76
2023-08-10 23:05:00,SystemResetWarning,0828.6,5.00,000.00,029.0,027.6,000.0,037.3,030.7,18.0,0000.0,0007.14,0004.11,0003.76
2023-08-10 23:06:00,SystemResetWarning,0828.6,5.00,000.00,029.0,027.8,000.0,037.4,030.8,18.2,0000.0,0006.73,0004.12,0003.77
2023-08-10 23:07:00,SystemResetWarning,0828.6,5.00,000.00,029.1,027.6,000.0,037.4,030.8,18.1,0000.0,0006.61,0004.09,0003.77
2023-08-10 23:08:00,SystemResetWarning,0828.5,4.99,000.00,029.0,026.1,000.0,037.2,030.5,17.9,0000.0,0006.54,0004.08,0003.78
2023-08-10 23:09:00,SystemResetWarning,0828.6,5.00,000.00,029.0,025.7,000.0,037.1,030.5,17.8,0000.0,0006.63,0004.08,0003.78
2023-08-10 23:10:00,SystemResetWarning,0828.6,5.01,000.00,028.9,025.9,000.0,037.2,030.4,18.0,0000.0,0006.49,0004.09,0003.77
2023-08-10 23:11:00,SystemResetWarning,0828.6,4.99,000.00,028.9,026.2,000.0,037.2,030.4,18.0,0000.0,0006.19,0004.07,0003.77
2023-08-10 23:12:00,SystemResetWarning,0828.6,5.00,000.00,028.9,026.6,000.0,037.3,030.5,17.9,0000.0,0006.10,0004.05,0003.76
2023-08-10 23:13:00,SystemResetWarning,0828.6,5.00,000.00,028.9,026.9,000.0,037.3,030.6,17.9,0000.0,0006.14,0004.08,0003.77
2023-08-10 23:14:00,SystemResetWarning,0828.6,5.00,000.00,029.0,027.2,000.0,037.4,030.7,18.0,0000.0,0006.22,0004.10,0003.78
2023-08-10 23:15:00,SystemResetWarning,0828.7,5.00,000.00,029.0,027.4,000.0,037.4,030.8,18.1,0000.0,0006.26,0004.11,0003.78
2023-08-10 23:16:00,SystemResetWarning,0828.7,4.99,000.00,029.0,027.6,000.0,037.4,030.8,18.1,0000.0,0006.29,0004.12,0003.79
2023-08-10 23:17:00,SystemResetWarning,0828.7,5.00,000.00,029.1,027.8,000.0,037.4,030.9,18.1,0000.0,0006.56,0004.17,0003.81
2023-08-10 23:18:00,SystemResetWarning,0828.7,4.99,000.00,029.1,027.2,000.0,037.4,030.8,18.3,0000.0,0007.62,0004.22,0003.83
2023-08-10 23:19:00,SystemResetWarning,0828.7,5.00,000.00,029.1,025.3,000.0,037.3,030.5,18.4,0000.0,0007.90,0004.25,0003.84
2023-08-10 23:20:00,SystemResetWarning,0828.7,5.00,000.00,029.0,024.7,000.0,037.2,030.3,18.5,0000.0,0008.29,0004.28,0003.88
2023-08-10 23:21:00,SystemResetWarning,0828.6,5.01,000.00,028.9,025.0,000.0,037.2,030.2,18.7,0000.0,0008.20,0004.29,0003.90
2023-08-10 23:22:00,SystemResetWarning,0828.6,5.00,000.00,028.8,025.4,000.0,037.2,030.2,18.8,0000.0,0008.16,0004.30,0003.93
2023-08-10 23:23:00,SystemResetWarning,0828.5,5.00,000.00,028.8,025.9,000.0,037.3,030.3,18.9,0000.0,0008.21,0004.33,0003.95
2023-08-10 23:24:00,SystemResetWarning,0828.5,5.00,000.00,028.8,026.3,000.0,037.3,030.4,19.0,0000.0,0008.30,0004.35,0003.96
2023-08-10 23:25:00,SystemResetWarning,0828.5,5.00,000.00,028.9,026.7,000.0,037.3,030.5,18.9,0000.0,0008.48,0004.37,0003.96
2023-08-10 23:26:00,SystemResetWarning,0828.5,5.00,000.00,028.9,027.1,000.0,037.3,030.6,18.8,0000.0,0008.83,0004.39,0003.98
2023-08-10 23:27:00,SystemResetWarning,0828.5,5.00,000.00,028.9,027.3,000.0,037.4,030.7,19.0,0000.0,0008.78,0004.38,0003.98
2023-08-10 23:28:00,SystemResetWarning,0828.5,4.99,000.00,029.0,027.6,000.0,037.4,030.8,19.2,0000.0,0008.74,0004.36,0003.97
2023-08-10 23:29:00,SystemResetWarning,0828.5,5.00,000.00,029.0,027.8,000.0,037.4,030.8,18.8,0000.0,0008.12,0004.34,0003.96
2023-08-10 23:30:00,SystemResetWarning,0828.5,4.99,000.00,029.1,027.5,000.0,037.4,030.8,18.8,0000.0,0008.24,0004.32,0003.95
2023-08-10 23:31:00,SystemResetWarning,0828.4,4.99,000.00,029.1,025.7,000.0,037.3,030.6,19.0,0000.0,0007.94,0004.33,0003.93
2023-08-10 23:32:00,SystemResetWarning,0828.4,5.01,000.00,029.0,024.7,000.0,037.2,030.3,19.3,0000.0,0008.11,0004.35,0003.93
2023-08-10 23:33:00,SystemResetWarning,0828.4,5.01,000.00,028.9,024.9,000.0,037.1,030.2,19.3,0000.0,0008.14,0004.36,0003.93
2023-08-10 23:34:00,SystemResetWarning,0828.4,5.00,000.00,028.8,025.3,000.0,037.2,030.2,18.8,0000.0,0008.45,0004.38,0003.93
2023-08-10 23:35:00,SystemResetWarning,0828.4,4.99,000.00,028.8,025.7,000.0,037.2,030.3,19.0,0000.0,0009.37,0004.41,0003.94
2023-08-10 23:36:00,SystemResetWarning,0828.4,5.00,000.00,028.8,026.2,000.0,037.3,030.4,19.2,0000.0,0009.49,0004.43,0003.98
2023-08-10 23:37:00,SystemResetWarning,0828.4,5.00,000.00,028.8,026.6,000.0,037.3,030.5,19.1,0000.0,0009.15,0004.45,0004.01
2023-08-10 23:38:00,SystemResetWarning,0828.4,5.00,000.00,028.9,026.9,000.0,037.3,030.6,19.2,0000.0,0009.28,0004.50,0004.03
2023-08-10 23:39:00,SystemResetWarning,0828.4,4.99,000.00,028.9,027.2,000.0,037.3,030.7,19.2,0000.0,0009.48,0004.54,0004.05
2023-08-10 23:40:00,SystemResetWarning,0828.4,5.00,000.00,029.0,027.4,000.0,037.4,030.7,19.2,0000.0,0010.08,0004.59,0004.07
2023-08-10 23:41:00,SystemResetWarning,0828.4,5.00,000.00,029.0,027.7,000.0,037.4,030.8,19.3,0000.0,0010.15,0004.64,0004.10
2023-08-10 23:42:00,SystemResetWarning,0828.4,5.00,000.00,029.0,027.8,000.0,037.4,030.9,19.4,0000.0,0010.13,0004.67,0004.12
2023-08-10 23:43:00,SystemResetWarning,0828.4,4.99,000.00,029.1,027.3,000.0,037.4,030.8,19.2,0000.0,0010.11,0004.68,0004.13
2023-08-10 23:44:00,SystemResetWarning,0828.4,5.00,000.00,029.0,025.9,000.0,037.3,030.5,19.2,0000.0,0010.17,0004.68,0004.13
2023-08-10 23:45:00,SystemResetWarning,0828.4,5.02,000.00,029.0,025.8,000.0,037.2,030.5,19.2,0000.0,0010.23,0004.70,0004.15
2023-08-10 23:46:00,SystemResetWarning,0828.4,5.00,000.00,028.9,026.0,000.0,037.2,030.4,19.2,0000.0,0009.27,0004.70,0004.14
2023-08-10 23:47:00,SystemResetWarning,0828.4,5.00,000.00,028.9,026.3,000.0,037.3,030.5,18.7,0000.0,0009.21,0004.69,0004.12
2023-08-10 23:48:00,SystemResetWarning,0828.4,5.00,000.00,028.9,026.7,000.0,037.3,030.6,18.3,0000.0,0009.54,0004.70,0004.11
2023-08-10 23:49:00,SystemResetWarning,0828.4,5.00,000.00,029.0,027.0,000.0,037.4,030.7,18.5,0000.0,0009.72,0004.72,0004.10
2023-08-10 23:50:00,SystemResetWarning,0828.4,5.00,000.00,029.0,027.3,000.0,037.4,030.8,18.7,0000.0,0009.89,0004.69,0004.10
2023-08-10 23:51:00,SystemResetWarning,0828.4,5.00,000.00,029.1,027.5,000.0,037.4,030.8,18.4,0000.0,0009.75,0004.65,0004.08
2023-08-10 23:52:00,SystemResetWarning,0828.4,5.00,000.00,029.1,027.7,000.0,037.4,030.9,18.3,0000.0,0009.68,0004.63,0004.07
2023-08-10 23:53:00,SystemResetWarning,0828.4,4.98,000.00,029.1,026.6,000.0,037.4,030.7,18.3,0000.0,0009.98,0004.62,0004.07
2023-08-10 23:54:00,SystemResetWarning,0828.3,5.01,000.00,029.1,025.7,000.0,037.3,030.5,18.4,0000.0,0010.06,0004.62,0004.08
2023-08-10 23:55:00,SystemResetWarning,0828.3,5.01,000.00,029.0,025.8,000.0,037.2,030.4,18.6,0000.0,0010.07,0004.63,0004.08
2023-08-10 23:56:00,SystemResetWarning,0828.3,5.00,000.00,029.0,026.1,000.0,037.3,030.4,18.5,0000.0,0010.14,0004.61,0004.07
2023-08-10 23:57:00,SystemResetWarning,0828.3,5.00,000.00,029.0,026.5,000.0,037.4,030.5,19.2,0000.0,0010.03,0004.57,0004.07
2023-08-10 23:58:00,SystemResetWarning,0828.3,5.01,000.00,029.0,026.8,000.0,037.4,030.6,20.1,0000.0,0009.79,0004.55,0004.07
2023-08-10 23:59:00,SystemResetWarning,0828.3,4.99,000.00,029.0,027.1,000.0,037.4,030.7,20.7,0000.0,0009.51,0004.54,0004.08
